Skip Page Navigation
NASA JPL Caltech
NASA Logo - Jet Propulsion Laboratory + View the NASA Portal
+ Center for Near-Earth Object Studies
JPL Home Earth Solar System Stars & Galaxies Technology
JPL Solar System Dynamics
BODIES ORBITS EPHEMERIDES TOOLS PHYSICAL DATA DISCOVERY FAQ SITE MAP
IMPORTANT: The SSD Announcement email list is now available. Major changes are coming in the near future, including possible hostname and/or URL changes. To be notified of such changes, subscribe to this email list.

Please visit this page for more details.


JPL Small-Body Database Browser
Search: [ help ]  
393029 (2013 AZ1)
Classification: Main-belt Asteroid          SPK-ID: 2393029
Ephemeris | Orbit Diagram | Orbital Elements | Mission Design | Physical Parameters | Discovery Circumstances | Close-Approach Data ]

[ show orbit diagram ]
Orbital Elements at Epoch 2459000.5 (2020-May-31.0) TDB
Reference: JPL 10 (heliocentric ecliptic J2000)
 Element Value Uncertainty (1-sigma)   Units 
e .2700015343472057 1.1503e-07  
a 3.030699273497802 4.1693e-08 au
q 2.212405819508434 3.6492e-07 au
i 9.659541096563503 6.9052e-06 deg
node 143.1821838617375 5.3522e-05 deg
peri 258.165031241871 6.2522e-05 deg
M 170.24437958778 2.1921e-05 deg
tp 2458089.154661502118
(2017-Dec-01.65466150)
0.00010928 TDB
period 1927.137463531201
5.28
3.9768e-05
1.089e-07
d
yr
n .1868055635950079 3.8548e-09 deg/d
Q 3.848992727487171 5.2951e-08 au
  Orbit Determination Parameters
   # obs. used (total)      128  
   data-arc span      6410 days (17.55 yr)  
   first obs. used      2001-09-18  
   last obs. used      2019-04-07  
   planetary ephem.      DE431  
   SB-pert. ephem.      SB431-N16  
   condition code      0  
   norm. resid. RMS      .60115  
   source      ORB  
   producer      Otto Matic  
   solution date      2019-Jul-14 11:19:14  

Additional Information
 Earth MOID = 1.24448 au 
 Jupiter MOID = 1.7127 au 
 T_jup = 3.166 
[ show covariance matrix ]

Ephemeris | Orbit Diagram | Orbital Elements | Mission Design | Physical Parameters | Discovery Circumstances | Close-Approach Data ]

Physical Parameter Table
Parameter Symbol Value Units Sigma Reference Notes
absolute magnitude H 16.6   n/a MPO472035  

393029 (2013 AZ1)          Discovered 2008-Jan-10 by CSS at Catalina
Reference: Last Updated: 2014-04-17

[ show close-approach data ]
Alternate Designations
 2013 AZ1 = 2008 AM41 
Ephemeris | Orbit Diagram | Orbital Elements | Mission Design | Physical Parameters | Discovery Circumstances | Close-Approach Data ]
ABOUT SSD CREDITS/AWARDS PRIVACY/COPYRIGHT GLOSSARY LINKS
FirstGov 2020-Apr-04 05:47 UT
(server date/time)  
NASA Home Page
Site Manager:   Ryan S. Park
Webmaster  Alan B. Chamberlin